GW0795 Weather Reports


time (UTC)temp
C
wind
direction
speed
KPH
gust
KPH
rain 1hr
cm
rain 24hr
cm
rain mn
cm
humidity
%
barometer
mb
20260903072007 11 228 0.0 0.0 0.00 0.58 0.00 89 1007.7
20260903071515 11 228 0.0 0.0 0.00 0.58 0.00 88 1007.6
20260903071010 11 228 0.0 0.0 0.00 0.58 0.00 88 1007.6
20260903070510 11 228 0.0 0.0 0.00 0.58 0.00 88 1007.6
20260903070023 11 228 0.0 0.0 0.00 0.58 0.00 87 1007.6
20260903065512 12 228 0.0 3.2 0.00 0.58 0.58 87 1007.7
20260903065014 11 160 0.0 3.2 0.00 0.58 0.58 87 1007.6
20260903064527 11 170 0.0 3.2 0.00 0.58 0.58 87 1007.6
20260903064014 11 233 0.0 0.0 0.00 0.58 0.58 86 1007.6
20260903063514 12 233 0.0 0.0 0.00 0.58 0.58 85 1007.6
20260903063028 12 177 0.0 4.8 0.00 0.58 0.58 84 1007.6
20260903062516 12 177 0.0 8.0 0.00 0.58 0.58 84 1007.6
20260903062020 12 106 0.0 8.0 0.00 0.58 0.58 84 1007.7
20260903061532 12 165 0.0 3.2 0.00 0.58 0.58 85 1007.6
20260903061008 12 159 0.0 1.6 0.00 0.58 0.58 85 1007.7
20260903060507 12 159 0.0 4.8 0.00 0.58 0.58 84 1007.7
20260903060016 12 348 0.0 6.4 0.00 0.58 0.58 85 1007.7
20260903055512 12 159 0.0 6.4 0.00 0.58 0.58 86 1007.7
20260903055014 12 101 0.0 4.8 0.00 0.58 0.58 87 1007.7
20260903054523 12 100 0.0 4.8 0.00 0.58 0.58 87 1007.8
20260903054016 12 166 1.6 4.8 0.00 0.58 0.58 88 1007.8
20260903053513 12 271 0.0 0.0 0.00 0.58 0.58 89 1007.8
20260903053027 12 269 0.0 0.0 0.00 0.58 0.58 90 1007.8
20260903052514 12 137 0.0 0.0 0.00 0.58 0.58 91 1007.7
20260903052016 12 134 0.0 0.0 0.00 0.58 0.58 91 1007.7
20260903051551 12 134 0.0 0.0 0.00 0.58 0.58 90 1007.7
20260903051021 12 134 0.0 0.0 0.00 0.58 0.58 90 1007.7
20260903050519 12 134 0.0 0.0 0.00 0.58 0.58 90 1007.7
20260903050033 12 134 0.0 0.0 0.00 0.58 0.58 90 1007.7
20260903045508 12 98 0.0 0.0 0.00 0.58 0.58 89 1007.8
20260903045009 12 98 0.0 0.0 0.00 0.58 0.58 89 1007.8
20260903044520 12 98 0.0 0.0 0.00 0.58 0.58 89 1007.7
20260903044010 12 98 0.0 0.0 0.00 0.58 0.58 89 1007.6
20260903043503 12 98 0.0 0.0 0.00 0.58 0.58 90 1007.6
20260903043005 12 98 0.0 0.0 0.00 0.58 0.58 89 1007.6
20260903042506 12 98 0.0 0.0 0.00 0.58 0.58 89 1007.6
20260903042004 12 98 0.0 0.0 0.00 0.58 0.58 88 1007.6
20260903041516 13 319 0.0 1.6 0.00 0.58 0.58 88 1007.4
20260903041004 13 319 0.0 3.2 0.00 0.58 0.58 87 1007.4
20260903040504 13 228 0.0 3.2 0.00 0.58 0.58 87 1007.4
20260903040016 13 224 0.0 3.2 0.00 0.58 0.58 87 1007.3
20260903035509 13 186 0.0 3.2 0.00 0.58 0.58 87 1007.3
20260903035008 13 219 0.0 4.8 0.00 0.58 0.58 86 1007.2
20260903034523 13 211 1.6 11.3 0.00 0.58 0.58 85 1007.1
20260903034013 13 195 3.2 11.3 0.00 0.58 0.58 85 1007.1
20260903033510 13 184 0.0 6.4 0.00 0.58 0.58 86 1007.0
20260903033024 13 229 0.0 6.4 0.00 0.58 0.58 86 1007.0
20260903032512 13 181 1.6 8.0 0.00 0.58 0.58 87 1006.9
20260903032007 13 215 0.0 8.0 0.00 0.58 0.58 87 1006.9
20260903031504 13 159 1.6 6.4 0.00 0.58 0.58 87 1006.8
20260903031004 13 180 0.0 8.0 0.00 0.58 0.58 88 1006.7
20260903030504 13 139 3.2 8.0 0.00 0.58 0.58 88 1006.7
20260903030012 13 191 1.6 6.4 0.00 0.58 0.58 89 1006.6
20260903025507 13 92 0.0 0.0 0.00 0.58 0.58 89 1006.6
20260903025007 13 92 0.0 0.0 0.00 0.58 0.58 89 1006.6
20260903024522 13 92 0.0 0.0 0.00 0.58 0.58 89 1006.5
20260903024008 13 92 0.0 0.0 0.00 0.58 0.58 89 1006.3
20260903023510 13 92 0.0 0.0 0.00 0.58 0.58 88 1006.2
20260903023020 13 92 0.0 0.0 0.00 0.58 0.58 88 1006.3
20260903022511 13 125 0.0 3.2 0.00 0.58 0.58 88 1006.3
20260903022014 13 125 0.0 3.2 0.00 0.58 0.58 88 1006.2
20260903021524 13 198 1.6 3.2 0.00 0.58 0.58 88 1006.1
20260903021016 13 154 0.0 3.2 0.00 0.58 0.58 88 1005.9
20260903020507 13 184 0.0 6.4 0.03 0.58 0.58 88 1005.8
20260903020011 13 242 0.0 8.0 0.05 0.58 0.58 88 1005.8
20260903015504 13 234 3.2 8.0 0.05 0.58 0.58 89 1005.9
20260903015008 13 211 0.0 3.2 0.05 0.58 0.58 89 1005.8
20260903014511 13 200 1.6 6.4 0.05 0.58 0.58 89 1005.9
20260903014012 13 194 1.6 6.4 0.05 0.58 0.58 89 1005.9
20260903013518 13 175 0.0 11.3 0.08 0.58 0.58 89 1005.9
20260903013015 13 229 1.6 11.3 0.08 0.58 0.58 89 1005.7
20260903012516 13 155 3.2 12.9 0.08 0.58 0.58 89 1005.8
20260903012012 14 162 3.2 17.7 0.10 0.58 0.58 89 1005.6
20260903011526 14 221 4.8 17.7 0.15 0.58 0.58 89 1005.6
20260903011014 14 236 3.2 11.3 0.20 0.58 0.58 89 1005.5
20260903010600 14 246 1.6 11.3 0.18 0.56 0.56 89 1005.5
20260903010556 14 115 4.8 16.1 0.15 0.53 0.53 90 1005.2
20260903010551 14 172 4.8 16.1 0.15 0.53 0.53 90 1005.2
20260903010546 15 200 1.6 12.9 0.15 0.53 0.53 91 1005.2
20260903010543 14 173 3.2 14.5 0.13 0.51 0.51 91 1005.0
20260903010539 14 162 1.6 9.7 0.13 0.51 0.51 91 1005.1
20260903002010 14 178 1.6 6.4 0.10 0.48 0.48 92 1005.1
20260903001520 15 196 0.0 3.2 0.05 0.43 0.43 91 1005.2
20260903001012 15 223 0.0 3.2 0.00 0.38 0.38 91 1005.1
20260903000515 15 350 1.6 3.2 0.03 0.38 0.38 91 1004.5
20260903000026 15 242 0.0 3.2 0.03 0.38 0.38 90 1004.6
20260902235516 15 223 0.0 3.2 0.05 0.38 0.38 90 1004.5
20260902235018 15 173 0.0 3.2 0.05 0.38 0.38 91 1004.5
20260902234527 15 176 1.6 3.2 0.08 0.38 0.38 91 1004.6
20260902234016 15 164 0.0 4.8 0.10 0.38 0.38 91 1004.5
20260902233508 15 224 1.6 6.4 0.13 0.38 0.38 91 1004.5
20260902233011 15 96 1.6 6.4 0.13 0.38 0.38 91 1004.4
20260902232512 14 105 1.6 9.7 0.15 0.38 0.38 91 1004.4
20260902232008 14 99 1.6 9.7 0.15 0.38 0.38 91 1004.3
20260902231514 15 98 0.0 3.2 0.15 0.38 0.38 91 1004.4
20260902231013 14 94 1.6 3.2 0.18 0.38 0.38 91 1004.5
20260902230511 14 96 1.6 3.2 0.15 0.36 0.36 91 1004.6
20260902230023 14 142 0.0 0.0 0.18 0.36 0.36 90 1004.7
20260902225512 14 142 0.0 0.0 0.15 0.33 0.33 90 1004.8
20260902225016 14 142 0.0 0.0 0.18 0.33 0.33 90 1004.7
20260902224539 14 142 0.0 0.0 0.15 0.30 0.30 90 1004.8
20260902224014 14 135 0.0 0.0 0.15 0.28 0.28 89 1004.6
20260902223519 14 209 0.0 0.0 0.13 0.25 0.25 89 1004.6
20260902223028 14 229 0.0 0.0 0.15 0.25 0.25 89 1004.7
20260902222517 14 229 0.0 0.0 0.15 0.23 0.23 89 1004.7
20260902222008 14 229 0.0 0.0 0.15 0.23 0.23 89 1004.8
20260902221516 14 209 0.0 0.0 0.15 0.23 0.23 89 1004.8
20260902221008 14 207 0.0 3.2 0.15 0.20 0.20 88 1004.7
20260902220511 14 207 0.0 3.2 0.15 0.20 0.20 89 1004.8
20260902220021 14 59 0.0 3.2 0.13 0.18 0.18 89 1004.8
20260902215513 14 175 1.6 3.2 0.13 0.18 0.18 88 1004.8
20260902215012 14 246 0.0 1.6 0.13 0.15 0.15 88 1004.9
20260902214524 14 352 0.0 0.0 0.13 0.15 0.15 87 1004.8
20260902214014 14 352 0.0 0.0 0.10 0.13 0.13 86 1004.8
20260902213516 14 291 0.0 0.0 0.10 0.13 0.13 85 1004.8
20260902213032 15 292 0.0 1.6 0.08 0.10 0.10 84 1004.8
20260902212506 15 271 0.0 3.2 0.05 0.08 0.08 84 1005.0
20260902212006 15 271 0.0 3.2 0.05 0.08 0.08 84 1004.9
20260902211508 15 188 0.0 3.2 0.05 0.08 0.08 82 1005.0
20260902211009 15 346 1.6 6.4 0.03 0.05 0.05 82 1004.9
20260902210509 15 191 1.6 6.4 0.03 0.05 0.05 81 1004.9
20260902210014 15 207 1.6 11.3 0.03 0.05 0.05 80 1004.9
20260902205510 15 236 3.2 11.3 0.03 0.05 0.05 78 1004.8
20260902205010 15 239 3.2 9.7 0.00 0.03 0.03 79 1004.8
20260902204509 16 323 1.6 9.7 0.00 0.03 0.03 78 1004.9
20260902204006 16 198 3.2 11.3 0.00 0.03 0.03 76 1004.8
20260902203503 16 198 1.6 11.3 0.00 0.03 0.03 75 1004.8
20260902203007 17 188 1.6 14.5 0.00 0.03 0.03 75 1004.7
20260902202503 17 238 4.8 14.5 0.03 0.03 0.03 72 1004.7
20260902202006 17 244 3.2 8.0 0.03 0.03 0.03 72 1004.7
20260902201507 17 170 1.6 8.0 0.03 0.03 0.03 72 1004.8
20260902201006 17 200 1.6 8.0 0.03 0.03 0.03 72 1004.8
20260902200508 17 84 1.6 8.0 0.03 0.03 0.03 72 1004.8
20260902200015 17 198 0.0 8.0 0.03 0.03 0.03 73 1004.9
20260902195510 17 238 3.2 8.0 0.03 0.03 0.03 74 1004.9
20260902195009 17 206 1.6 11.3 0.03 0.03 0.03 74 1004.9
20260902194522 16 211 3.2 11.3 0.03 0.03 0.03 78 1005.0
20260902194012 16 313 0.0 14.5 0.03 0.03 0.03 81 1005.0
20260902193512 16 306 1.6 16.1 0.03 0.03 0.03 80 1005.1
20260902193004 16 217 6.4 16.1 0.03 0.03 0.03 79 1005.3
20260902192503 16 194 1.6 8.0 0.00 0.00 0.00 79 1005.3
20260902192004 16 270 3.2 8.0 0.00 0.00 0.00 75 1005.2
20260902191508 17 190 3.2 8.0 0.00 0.00 0.00 69 1005.2
20260902191005 18 111 0.0 16.1 0.00 0.00 0.00 66 1005.3
20260902190507 19 189 3.2 16.1 0.00 0.00 0.00 63 1005.3
20260902190017 20 203 4.8 16.1 0.00 0.00 0.00 59 1005.1
20260902185510 19 188 1.6 16.1 0.00 0.00 0.00 58 1005.0
20260902185009 20 241 3.2 11.3 0.00 0.00 0.00 58 1005.0
20260902184518 20 219 3.2 11.3 0.00 0.00 0.00 58 1005.1
20260902184011 20 225 3.2 12.9 0.00 0.00 0.00 56 1005.1
20260902183512 20 202 3.2 14.5 0.00 0.00 0.00 61 1005.1
20260902183026 20 168 6.4 14.5 0.00 0.00 0.00 60 1005.1
20260902182516 19 125 1.6 9.7 0.00 0.00 0.00 66 1005.2
20260902182013 18 148 4.8 9.7 0.00 0.00 0.00 65 1005.3
20260902181504 18 253 1.6 4.8 0.00 0.00 0.00 65 1005.3
20260902181012 18 72 1.6 4.8 0.00 0.00 0.00 67 1005.3
20260902180506 18 81 1.6 4.8 0.00 0.00 0.00 67 1005.4
20260902180010 17 84 3.2 4.8 0.00 0.00 0.00 67 1005.4
20260902175508 17 189 0.0 3.2 0.00 0.00 0.00 69 1005.4
20260902175010 17 123 0.0 3.2 0.00 0.00 0.00 69 1005.5
20260902174533 17 96 1.6 3.2 0.00 0.00 0.00 70 1005.6
20260902174011 17 116 0.0 6.4 0.00 0.00 0.00 71 1005.7
20260902173512 17 99 1.6 6.4 0.00 0.00 0.00 71 1005.7
20260902173020 17 210 0.0 4.8 0.00 0.00 0.00 70 1005.8
20260902172514 17 147 1.6 4.8 0.00 0.00 0.00 70 1005.9
20260902172018 17 96 1.6 4.8 0.00 0.00 0.00 70 1005.9
20260902171529 17 96 0.0 3.2 0.00 0.00 0.00 71 1006.0
20260902171018 17 178 0.0 9.7 0.00 0.00 0.00 70 1006.0
20260902170513 17 139 1.6 9.7 0.00 0.00 0.00 71 1006.2
20260902170008 17 115 1.6 3.2 0.00 0.00 0.00 71 1006.2
20260902165507 17 130 0.0 3.2 0.00 0.00 0.00 71 1006.2
20260902165004 16 183 0.0 3.2 0.00 0.00 0.00 72 1006.3
20260902164515 16 217 0.0 3.2 0.00 0.00 0.00 73 1006.4
20260902164010 16 180 0.0 3.2 0.00 0.00 0.00 72 1006.4
20260902163508 16 165 0.0 3.2 0.00 0.00 0.00 74 1006.5
20260902163018 16 201 0.0 3.2 0.00 0.00 0.00 74 1006.5
20260902162512 16 215 0.0 3.2 0.00 0.00 0.00 73 1006.5
20260902162012 17 189 0.0 8.0 0.00 0.00 0.00 73 1006.6
20260902161524 17 182 0.0 8.0 0.00 0.00 0.00 73 1006.6
20260902161016 16 186 0.0 4.8 0.00 0.00 0.00 75 1006.6
20260902160513 16 139 1.6 4.8 0.00 0.00 0.00 73 1006.7
20260902160033 17 207 1.6 4.8 0.00 0.00 0.00 75 1006.8
20260902155518 16 186 0.0 6.4 0.00 0.00 0.00 76 1006.8
20260902155015 16 157 0.0 6.4 0.00 0.00 0.00 76 1006.8
20260902154508 16 173 1.6 4.8 0.00 0.00 0.00 75 1006.9
20260902154006 16 94 0.0 4.8 0.00 0.00 0.00 76 1006.9
20260902153510 16 86 1.6 6.4 0.00 0.00 0.00 78 1007.1
20260902153016 16 94 3.2 6.4 0.00 0.00 0.00 77 1007.0
20260902152511 16 94 1.6 9.7 0.00 0.00 0.00 78 1007.1
20260902152010 16 62 3.2 9.7 0.00 0.00 0.00 78 1007.1
20260902151524 16 92 3.2 8.0 0.00 0.00 0.00 80 1007.2
20260902151011 15 128 1.6 4.8 0.00 0.00 0.00 81 1007.2
20260902150516 15 96 3.2 4.8 0.00 0.00 0.00 81 1007.2
20260902150027 15 79 1.6 6.4 0.00 0.00 0.00 82 1007.3
20260902145514 15 108 3.2 6.4 0.00 0.00 0.00 82 1007.4
20260902145013 15 78 3.2 6.4 0.00 0.00 0.00 81 1007.6
20260902144528 15 98 3.2 6.4 0.00 0.00 0.00 81 1007.6
20260902144018 15 96 1.6 4.8 0.00 0.00 0.00 82 1007.6
20260902143516 15 86 0.0 4.8 0.00 0.00 0.00 83 1007.7
20260902143015 14 127 0.0 3.2 0.00 0.00 0.00 84 1007.7
20260902142510 14 136 0.0 1.6 0.00 0.00 0.00 84 1007.8
20260902142009 13 136 0.0 3.2 0.00 0.00 0.00 86 1007.8
20260902141533 13 67 0.0 3.2 0.00 0.00 0.00 87 1007.9
20260902141015 13 347 0.0 0.0 0.00 0.00 0.00 88 1007.9
20260902140512 13 347 0.0 0.0 0.00 0.00 0.00 88 1007.9
20260902140029 13 347 0.0 0.0 0.00 0.00 0.00 89 1007.9
20260902135516 13 347 0.0 0.0 0.00 0.00 0.00 89 1007.8
20260902135014 12 347 0.0 0.0 0.00 0.00 0.00 89 1007.9
20260902134530 12 347 0.0 3.2 0.00 0.00 0.00 90 1007.9
20260902134015 12 347 0.0 3.2 0.00 0.00 0.00 89 1007.9
20260902133521 12 347 0.0 1.6 0.00 0.00 0.00 89 1007.9
20260902133031 12 347 0.0 1.6 0.00 0.00 0.00 89 1007.8
20260902132521 12 347 0.0 3.2 0.00 0.00 0.00 89 1007.6
20260902132018 13 229 0.0 3.2 0.00 0.00 0.00 88 1007.7
20260902131522 13 229 0.0 1.6 0.00 0.00 0.00 88 1007.8
20260902131012 13 229 0.0 6.4 0.00 0.00 0.00 87 1008.0
20260902130512 13 211 1.6 6.4 0.00 0.00 0.00 87 1008.1
20260902130023 13 103 0.0 0.0 0.00 0.00 0.00 88 1008.0
20260902125514 13 103 0.0 0.0 0.00 0.00 0.00 88 1008.2
20260902125016 13 103 0.0 0.0 0.00 0.00 0.00 87 1008.2
20260902124529 14 103 0.0 0.0 0.00 0.00 0.00 87 1008.2
20260902124015 14 103 0.0 0.0 0.00 0.00 0.00 87 1008.3
20260902123517 14 103 0.0 0.0 0.00 0.00 0.00 87 1008.3
20260902123032 14 103 0.0 0.0 0.00 0.00 0.00 88 1008.2
20260902122504 14 103 0.0 0.0 0.00 0.00 0.00 88 1008.2
20260902122003 14 103 0.0 0.0 0.00 0.00 0.00 88 1008.3
20260902121501 14 103 0.0 0.0 0.00 0.00 0.00 87 1008.4
20260902121001 14 103 0.0 0.0 0.00 0.00 0.00 87 1008.5
20260902120501 14 103 0.0 0.0 0.00 0.00 0.00 88 1008.5
20260902120001 14 103 0.0 0.0 0.00 0.00 0.00 88 1008.5
20260902115500 14 103 0.0 0.0 0.00 0.00 0.00 88 1008.6
20260902115000 14 103 0.0 0.0 0.00 0.00 0.00 88 1008.6
20260902114504 14 103 0.0 0.0 0.00 0.00 0.00 88 1008.7
20260902114003 14 103 0.0 0.0 0.00 0.00 0.00 88 1008.7
20260902113503 14 103 0.0 1.6 0.00 0.00 0.00 88 1008.7
20260902113003 14 103 0.0 1.6 0.00 0.00 0.00 89 1008.7
20260902112504 14 103 0.0 0.0 0.00 0.00 0.00 89 1008.8
20260902112004 14 103 0.0 3.2 0.00 0.00 0.00 90 1008.7
20260902111503 14 103 0.0 3.2 0.00 0.00 0.00 90 1008.8
20260902111006 13 103 0.0 3.2 0.00 0.00 0.00 91 1008.8
20260902110501 13 103 0.0 3.2 0.00 0.00 0.00 91 1008.8
20260902110006 13 182 0.0 0.0 0.00 0.00 0.00 91 1008.8
20260902105505 13 182 0.0 0.0 0.00 0.00 0.00 91 1008.9
20260902105002 13 182 0.0 0.0 0.00 0.00 0.00 92 1008.9
20260902104506 13 182 0.0 0.0 0.00 0.00 0.00 92 1009.0
20260902104004 13 182 0.0 0.0 0.00 0.00 0.00 92 1009.0
20260902103503 13 182 0.0 0.0 0.00 0.00 0.00 92 1009.0
20260902103002 13 182 0.0 0.0 0.00 0.00 0.00 91 1009.1
20260902102502 13 182 0.0 0.0 0.00 0.00 0.00 91 1009.2
20260902102002 13 182 0.0 0.0 0.00 0.00 0.00 91 1009.2
20260902101502 13 182 0.0 0.0 0.00 0.00 0.00 91 1009.3
20260902101003 13 182 0.0 0.0 0.00 0.00 0.00 91 1009.3
20260902100501 13 182 0.0 0.0 0.00 0.00 0.00 91 1009.3
20260902100004 13 182 0.0 0.0 0.00 0.00 0.00 91 1009.3
20260902095502 13 182 0.0 0.0 0.00 0.00 0.00 91 1009.3
20260902095002 13 182 0.0 0.0 0.00 0.00 0.00 90 1009.3
20260902094512 13 182 0.0 0.0 0.00 0.00 0.00 90 1009.3
20260902094001 13 182 0.0 0.0 0.00 0.00 0.00 90 1009.4
20260902093502 14 182 0.0 0.0 0.00 0.00 0.00 90 1009.3
20260902093002 14 197 0.0 1.6 0.00 0.00 0.00 89 1009.4
20260902092501 14 197 0.0 1.6 0.00 0.00 0.00 89 1009.4
20260902092004 14 196 0.0 1.6 0.00 0.00 0.00 89 1009.2
20260902091506 14 235 0.0 0.0 0.00 0.00 0.00 89 1009.3
20260902091001 14 235 0.0 0.0 0.00 0.00 0.00 89 1009.4
20260902090501 14 235 0.0 0.0 0.00 0.00 0.00 89 1009.4
20260902090005 14 235 0.0 0.0 0.00 0.00 0.00 89 1009.5
20260902085505 14 235 0.0 3.2 0.00 0.00 0.00 89 1009.6
20260902085008 14 235 0.0 3.2 0.00 0.00 0.00 89 1009.6
20260902084505 15 235 0.0 3.2 0.00 0.00 0.00 89 1009.7
20260902084002 15 226 0.0 3.2 0.00 0.00 0.00 89 1009.8
20260902083501 15 226 0.0 3.2 0.00 0.00 0.00 88 1009.9
20260902083010 15 162 0.0 8.0 0.00 0.00 0.00 88 1009.9
20260902082502 15 207 1.6 8.0 0.00 0.00 0.00 88 1009.9
20260902082002 15 190 0.0 6.4 0.00 0.00 0.00 87 1009.9
20260902081514 15 213 1.6 6.4 0.00 0.00 0.00 87 1009.9
20260902081007 15 135 0.0 3.2 0.00 0.00 0.00 87 1009.9
20260902080506 15 304 0.0 3.2 0.00 0.00 0.00 87 1009.9
20260902080010 15 157 1.6 3.2 0.00 0.00 0.00 86 1009.9
20260902075505 15 209 0.0 3.2 0.00 0.00 0.00 87 1009.9
20260902075005 15 193 0.0 1.6 0.00 0.00 0.00 87 1009.9
20260902074510 15 193 0.0 4.8 0.00 0.00 0.00 87 1009.9
20260902074007 15 193 0.0 4.8 0.00 0.00 0.00 87 1009.9
20260902073507 15 202 0.0 3.2 0.00 0.00 0.00 87 1010.0
20260902073012 15 202 0.0 3.2 0.00 0.00 0.00 88 1010.0
20260902072506 15 157 0.0 3.2 0.00 0.00 0.00 88 1010.0